Weather History for Dayton, OH

Change the Weather History Date:

Wednesday, November 7, 2012

  Actual Average Record
Temperature  
Mean Temperature 43 °F 46 °F  
Max Temperature 52 °F 55 °F 76 °F (1938)
Min Temperature 33 °F 38 °F 15 °F (1991)
Degree Days  
Heating Degree Days 22 18  
Month to date heating degree days 180 121  
Since 1 July heating degree days 680 568  
Cooling Degree Days 0 0  
Month to date cooling degree days 0 0  
Year to date cooling degree days 1264 891  
Moisture  
Dew Point 31 °F    
Average Humidity 68    
Maximum Humidity 89    
Minimum Humidity 46    
Precipitation  
Precipitation 0.00 in 0.11 in 1.42 in (1925)
Month to date precipitation 0.03 0.75  
Year to date precipitation 28.06 35.29  
Snow  
Snow 0.00 in 0.00 in 1.00 in (1991)
Month to date snowfall T 0.1  
Since 1 July snowfall 0.7 0.5  
Since 1 September snowfall 0.7 0.5  
Snow Depth 0.00 in    
Sea Level Pressure  
Sea Level Pressure 30.01 in    
Wind  
Wind Speed 7 mph (North)    
Max Wind Speed 15 mph    
Max Gust Speed 18 mph    
Visibility 8 miles    
Events      
T = Trace of Precipitation, MM = Missing Value Source: NWS Daily Summary

Daily Weather History Graph

Daily Weather History Graph

Search for Another Location

Airport:

Trip Planner

Search our weather history database for the weather conditions in past years. The results will help you decide how hot, cold, wet, or windy it might be!

Date:

Astronomy

Nov. 07, 2012 Rise Set
Actual Time 7:13 AM EST 5:27 PM EST
Civil Twilight 6:44 AM EST 5:55 PM EST
Nautical Twilight 6:12 AM EST 6:28 PM EST
Astronomical Twilight 5:40 AM EST 6:59 PM EST
Moon 12:06 AM EST (11/7) 1:35 PM EST (11/7)
Length of Visible Light 11h 11m
Length of Day
10h 14m
Last Quarter, 43% of the Moon is Illuminated
Nov 7
Last Quarter
Nov 13
New
Nov 20
First Quarter
Nov 28
Full
Dec 6
Last Quarter

Hourly Weather History & Observations

Time (EST) Temp. Windchill Dew Point Humidity Pressure Visibility Wind Dir Wind Speed Gust Speed Precip Events Conditions
12:56 AM 37.0 °F 34.5 °F 28.9 °F 73% 29.93 in 9.0 mi East 3.5 mph - N/A   Overcast
1:56 AM 37.0 °F - 28.9 °F 73% 29.92 in 8.0 mi Calm Calm - N/A   Overcast
2:56 AM 37.9 °F - 28.0 °F 68% 29.92 in 9.0 mi Calm Calm - N/A   Overcast
3:56 AM 36.0 °F - 30.0 °F 79% 29.92 in 8.0 mi Calm Calm - N/A   Overcast
4:56 AM 36.0 °F 31.1 °F 30.9 °F 82% 29.92 in 7.0 mi NE 5.8 mph - N/A   Overcast
5:56 AM 36.0 °F 33.3 °F 30.9 °F 82% 29.94 in 8.0 mi NNW 3.5 mph - N/A   Overcast
6:56 AM 34.0 °F 28.8 °F 30.0 °F 85% 29.95 in 6.0 mi NNW 5.8 mph - N/A   Mostly Cloudy
7:56 AM 33.1 °F 26.9 °F 30.0 °F 89% 29.97 in 5.0 mi NNW 6.9 mph - N/A   Mostly Cloudy
8:56 AM 37.9 °F 33.5 °F 30.9 °F 76% 29.99 in 6.0 mi NNW 5.8 mph - N/A   Haze
9:56 AM 44.1 °F 38.1 °F 28.9 °F 55% 29.99 in 10.0 mi NNE 11.5 mph - N/A   Clear
10:56 AM 48.0 °F - 28.9 °F 48% 30.00 in 10.0 mi NNE 11.5 mph - N/A   Partly Cloudy
11:56 AM 48.9 °F - 32.0 °F 52% 30.00 in 10.0 mi North 9.2 mph - N/A   Partly Cloudy
12:56 PM 51.1 °F - 33.1 °F 50% 29.98 in 10.0 mi NNE 12.7 mph - N/A   Partly Cloudy
1:56 PM 51.1 °F - 33.1 °F 50% 29.98 in 10.0 mi North 6.9 mph - N/A   Partly Cloudy
2:56 PM 51.1 °F - 33.1 °F 50% 29.99 in 10.0 mi North 9.2 mph - N/A   Clear
3:56 PM 51.1 °F - 33.1 °F 50% 30.01 in 10.0 mi North 9.2 mph - N/A   Partly Cloudy
4:56 PM 46.9 °F - 36.0 °F 66% 30.04 in 7.0 mi North 11.5 mph - N/A   Clear
5:56 PM 42.1 °F 37.1 °F 35.1 °F 76% 30.06 in 8.0 mi NNW 8.1 mph - N/A   Clear
6:56 PM 39.0 °F 33.4 °F 33.1 °F 79% 30.09 in 7.0 mi NNW 8.1 mph - N/A   Clear
7:56 PM 39.0 °F 34.0 °F 34.0 °F 82% 30.10 in 6.0 mi North 6.9 mph - N/A   Haze
8:56 PM 36.0 °F 30.3 °F 30.9 °F 82% 30.12 in 8.0 mi North 6.9 mph - N/A   Clear
9:56 PM 36.0 °F 31.1 °F 30.9 °F 82% 30.13 in 9.0 mi North 5.8 mph - N/A   Clear
10:56 PM 35.1 °F 30.1 °F 30.0 °F 82% 30.14 in 8.0 mi NNE 5.8 mph - N/A   Clear
11:56 PM 34.0 °F 28.8 °F 30.0 °F 85% 30.14 in 8.0 mi North 5.8 mph - N/A   Clear